CW2220 Weather Reports


time (UTC)temp
C
wind
direction
speed
KPH
gust
KPH
rain 1hr
cm
rain 24hr
cm
rain mn
cm
humidity
%
barometer
mb
20260505034532 19 161 0.0 8.0 0.00 0.00 0.00 81 1013.0
20260505033032 19 189 3.2 9.7 0.00 0.00 0.00 80 1012.9
20260505031541 20 175 1.6 6.4 0.00 0.00 0.00 80 1013.0
20260505030035 20 208 0.0 9.7 0.00 0.00 0.00 79 1012.9
20260505024547 20 0 3.2 9.7 0.00 0.00 0.00 78 1012.7
20260505023032 20 198 4.8 11.3 0.00 0.00 0.00 78 1012.7
20260505021538 20 196 4.8 9.7 0.00 0.00 0.00 77 1012.6
20260505020034 20 184 3.2 9.7 0.00 0.00 0.00 77 1012.5
20260505014551 20 179 3.2 8.0 0.00 0.00 0.00 77 1012.5
20260505013033 20 173 1.6 11.3 0.00 0.00 0.00 76 1012.6
20260505011532 21 205 3.2 11.3 0.00 0.00 0.00 74 1012.5
20260505010035 21 179 3.2 9.7 0.00 0.00 0.00 73 1012.4
20260505004539 21 198 3.2 12.9 0.00 0.00 0.00 72 1012.5
20260505003035 22 139 6.4 14.5 0.00 0.00 0.00 70 1012.8
20260505001530 22 194 4.8 17.7 0.00 0.00 0.00 69 1012.6
20260505000040 22 198 6.4 16.1 0.00 0.00 0.00 68 1012.5
20260504234543 23 167 6.4 14.5 0.00 0.00 0.00 67 1012.5
20260504233052 23 135 6.4 17.7 0.00 0.00 0.00 66 1012.8
20260504231537 23 186 6.4 17.7 0.00 0.00 0.00 64 1013.1
20260504230042 23 225 8.0 19.3 0.00 0.00 0.00 64 1013.3
20260504224540 23 175 8.0 17.7 0.00 0.00 0.00 63 1013.3
20260504223052 24 177 9.7 19.3 0.00 0.00 0.00 62 1013.4
20260504221538 25 201 8.0 17.7 0.00 0.00 0.00 62 1013.5
20260504220035 25 200 9.7 20.9 0.00 0.00 0.00 61 1013.5
20260504214538 25 190 3.2 17.7 0.00 0.00 0.00 59 1013.6
20260504213045 25 198 6.4 17.7 0.00 0.00 0.00 58 1013.9
20260504211538 25 259 6.4 17.7 0.00 0.00 0.00 58 1013.9
20260504210040 25 202 6.4 17.7 0.00 0.00 0.00 58 1014.0
20260504204543 24 175 6.4 19.3 0.00 0.00 0.00 60 1014.3
20260504203041 26 199 6.4 14.5 0.00 0.00 0.00 56 1014.3
20260504201539 25 202 6.4 17.7 0.00 0.00 0.00 56 1014.7
20260504200033 24 139 6.4 17.7 0.00 0.00 0.00 58 1015.1
20260504194535 25 63 4.8 24.1 0.00 0.00 0.00 57 1015.1
20260504193035 25 179 9.7 24.1 0.00 0.00 0.00 57 1015.4
20260504191534 25 191 11.3 22.5 0.00 0.00 0.00 57 1015.8
20260504190036 25 173 8.0 27.4 0.00 0.00 0.00 58 1015.8
20260504184538 25 94 8.0 22.5 0.00 0.00 0.00 57 1015.8
20260504183034 24 148 6.4 25.7 0.00 0.00 0.00 56 1016.0
20260504181542 24 190 12.9 24.1 0.00 0.00 0.00 58 1016.1
20260504180035 24 187 11.3 27.4 0.00 0.00 0.00 55 1016.3
20260504174538 23 193 9.7 24.1 0.00 0.00 0.00 56 1016.3
20260504173036 24 164 9.7 27.4 0.00 0.00 0.00 55 1016.7
20260504171535 24 196 8.0 22.5 0.00 0.00 0.00 55 1017.1
20260504081538 14 0 0.0 0.0 0.00 0.00 0.00 92 1017.1
20260504044543 15 0 0.0 0.0 0.00 0.00 0.00 85 1018.3
20260504043038 16 0 0.0 0.0 0.00 0.00 0.00 83 1018.4
20260504041535 16 0 0.0 0.0 0.00 0.00 0.00 82 1018.6
20260504040044 16 0 0.0 0.0 0.00 0.00 0.00 80 1018.7